Home > Weather > Munich > Past weeks

Flag for Germany Past Weather in Munich, Bavaria, Germany — Yesterday and Last 2 Weeks

Now
72 °F

Sunny.


Feels Like: 75 °F
Forecast: 59 / 85 °F
Wind: 3 mph from East

Location: Munich / Franz Josef Strauss Airport

Current Time: Aug 27, 2016 at 8:55:44 PM

Latest Report: Aug 27, 2016 at 8:20 PM


Visibility: 10 mi

Pressure: 30.07 "Hg (28.29 "Hg at 526m altitude)

Humidity: 69%

Dew Point: 61 °F

Location of MunichLocation

Past Weather in Munich — Graph

°F

Munich Temperature Yesterday

Maximum temperature yesterday: 84 °F (at 2:50 PM)
Minimum temperature yesterday: 50 °F (at 5:20 AM)
Average temperature yesterday: 68 °F

High & Low Weather Summary for the Past Weeks

 TemperatureHumidityPressure
High84 °F (Aug 26, 2:50 PM)100% (Aug 12, 11:50 PM)30.42 "Hg (Aug 12, 11:50 PM)
Low50 °F (Aug 16, 5:50 AM)30% (Aug 25, 4:50 PM)29.83 "Hg (Aug 18, 12:50 PM)
Average65 °F75%30.13 "Hg
* Reported Aug 12 7:20 PM — Aug 27 7:20 PM, Munich, Weather by CustomWeather, © 2016

Note: Actual official high and low records may vary slightly from our data, if they occured in-between our weather recording intervals... More about our weather records

Advertising

Munich Weather History for the Previous 24 Hours

Scroll right to see more
 ConditionsComfort  
Time TempWeatherWind HumidityBarometerVisibility
7:20 PM
Sat, Aug 27
81 °FPassing clouds.6 mph45%30.07 "HgN/A
6:50 PM82 °FSunny.6 mph42%30.07 "Hg10 mi
6:20 PM84 °FSunny.7 mph43%30.07 "Hg10 mi
5:50 PM84 °FSunny.6 mph43%30.07 "Hg10 mi
5:20 PM84 °FPassing clouds.5 mph43%30.09 "HgN/A
4:50 PM84 °FPassing clouds.6 mph45%30.09 "HgN/A
4:20 PM84 °FPassing clouds.6 mph43%30.09 "HgN/A
3:50 PM84 °FSunny.3 mph45%30.09 "Hg10 mi
3:20 PM84 °FPassing clouds.6 mph43%30.09 "HgN/A
2:50 PM84 °FPassing clouds.6 mph45%30.12 "HgN/A
2:20 PM82 °FPassing clouds.6 mph42%30.12 "HgN/A
1:50 PM82 °FPassing clouds.5 mph48%30.12 "HgN/A
1:20 PM82 °FSunny.5 mph48%30.12 "Hg10 mi
12:50 PM81 °FPassing clouds.3 mph54%30.12 "HgN/A
12:20 PM81 °FSunny.3 mph58%30.12 "Hg10 mi
11:50 AM79 °FSunny.3 mph61%30.15 "Hg10 mi
11:20 AM77 °FPassing clouds.5 mph65%30.15 "HgN/A
10:50 AM73 °FPassing clouds.5 mph74%30.15 "HgN/A
10:20 AM72 °FPassing clouds.5 mph78%30.15 "HgN/A
9:50 AM70 °FClear.5 mph88%30.15 "Hg6 mi
9:20 AM66 °FClear.3 mph94%30.15 "Hg5 mi
8:50 AM63 °FFog.2 mph100%30.15 "Hg3 mi
8:20 AM59 °FCool.3 mph100%30.15 "Hg1 mi
7:50 AM57 °FCool.2 mph100%30.12 "Hg1 mi
7:20 AM55 °FCool.2 mph100%30.12 "Hg1 mi
6:50 AM55 °FCool.2 mph100%30.12 "Hg1 mi
6:20 AM54 °FCool.2 mph100%30.12 "Hg1 mi
5:20 AM54 °FCool.2 mph100%30.12 "Hg1 mi
4:50 AM54 °FCool.1 mph100%30.12 "Hg2 mi
4:20 AM55 °FCool.No wind100%30.15 "Hg2 mi
3:50 AM55 °FCool.1 mph100%30.15 "Hg3 mi
3:20 AM57 °FCool.1 mph100%30.15 "Hg4 mi
2:50 AM57 °FCool.1 mph100%30.12 "Hg5 mi
2:20 AM57 °FLight fog.1 mph100%30.12 "Hg5 mi
1:50 AM59 °FLight fog.No wind100%30.12 "HgN/A
1:20 AM59 °FFog.No wind100%30.12 "HgN/A
12:50 AM59 °FFog.1 mph100%30.12 "HgN/A
12:20 AM61 °FFog.No wind100%30.12 "HgN/A
11:50 PM
Fri, Aug 26
61 °FFog.2 mph100%30.12 "HgN/A
11:20 PM63 °FFog.2 mph100%30.12 "HgN/A
10:50 PM64 °FClear.2 mph94%30.12 "Hg10 mi
10:20 PM64 °FClear.2 mph94%30.12 "Hg10 mi
9:50 PM66 °FClear.1 mph88%30.12 "Hg10 mi
9:20 PM68 °FClear.3 mph88%30.12 "Hg10 mi
8:50 PM72 °FSunny.2 mph73%30.12 "Hg10 mi
8:20 PM72 °FSunny.1 mph73%30.09 "Hg10 mi
Weather by CustomWeather, © 2016

See weather overviewHow to use our weather pages